User: anonymous   Login
Location: Unspecified
(0.0000°N, 0.0000°E)
Time: 01:45:44
(UTC+00:00)
Language:

deb Explorer IX - Orbit

View from above orbital plane
View from above orbital plane
View from above satellite
View from above satellite

Ground track
Ground track

The orbit data is extracted from the following two-line orbital elements,

1 00085U 61004C   16176.43052254  .00002173  00000-0  51671-3 0  9996
2 00085  38.7737 213.9973 0401893 203.1648 155.0514 14.15545237724532
Epoch (UTC): 24 June 2016 10:19:57
Eccentricity: 0.0401893
inclination: 38.7737°
perigee height: 550 km
apogee height: 1130 km
right ascension of ascending node: 213.9973°
argument of perigee: 203.1648°
revolutions per day: 14.15545237
mean anomaly at epoch: 155.0514°
orbit number at epoch: 72453

The dashed part of the orbit path shows where the satellite is in the earth's shadow,  

DLR